Regional Weather Roundup
Issued by NWS

Home | Current Version | Previous Version | Graphics & Text | Print | Product List | Glossary On
Versions: 1 2 3 4 5 6 7 8 9 10 11 12 13 14 15 16 17 18 19 20 21 22 23 24 25 26 27 28 29 30 31 32 33 34 35 36 37 38 39 40 41 42 43 44 45 46 47 48 49 50
000
ASUS44 KMEG 061300
RWRTN
TENNESSEE HOURLY STATE WEATHER ROUNDUP
NATIONAL WEATHER SERVICE MEMPHIS TN
800 AM CDT WED MAY 06 2015

TNZ002-004-019-021-049-052-054-088>092-061400-
WEST TENNESSEE

CITY           SKY/WX    TMP DP  RH WIND       PRES   REMARKS
MEMPHIS INTL   MOSUNNY   69  56  62 S6        30.16R
NWS MEMPHIS      N/A     67 N/A N/A MISG        N/A
JACKSON        SUNNY     66  60  81 CALM      30.18R
DYERSBURG      SUNNY     66  46  48 SE5       30.18S
PARIS          MOSUNNY   64  55  72 SE5       30.20R
LEXINGTON      SUNNY     64  57  77 CALM      30.19R
$$

TNZ008-025-027-028-033-062-065-066-061400-
NORTH MIDDLE TENNESSEE

CITY           SKY/WX    TMP DP  RH WIND       PRES   REMARKS
NASHVILLE      MOSUNNY   67  58  72 S3        30.22R
CLARKSVILLE    PTSUNNY   63  58  83 SE3       30.21R
COOKEVILLE     SUNNY     72  59  64 S3        30.23R
CROSSVILLE     MOSUNNY   69  53  56 CALM      30.27R
$$

TNZ061-075-076-078-094-096-097-061400-
SOUTH MIDDLE TENNESSEE

CITY           SKY/WX    TMP DP  RH WIND       PRES   REMARKS
FAYETTEVILLE   SUNNY     64  55  72 CALM      30.22S
TULLAHOMA      SUNNY     66  55  68 CALM      30.24S
WINCHESTER     SUNNY     66  55  68 SE5       30.24R
SHELBYVILLE    SUNNY     70  61  73 CALM      30.23S
$$

TNZ017-018-042-046-047-061400-
NORTHEAST TENNESSEE

CITY           SKY/WX    TMP DP  RH WIND       PRES   REMARKS
TRI CITIES     MOSUNNY   65  56  72 CALM      30.27F
$$

TNZ012-013-036-069-073-074-061400-
CENTRAL EAST TENNESSEE

CITY           SKY/WX    TMP DP  RH WIND       PRES   REMARKS
KNOXVILLE      MOSUNNY   66  58  75 CALM      30.24S
OAK RIDGE      SUNNY     66  58  75 E3        30.26S
GATLINBURG     MOSUNNY   63  55  77 CALM      30.25S
$$

TNZ083-085-099-061400-
SOUTHEAST TENNESSEE

CITY           SKY/WX    TMP DP  RH WIND       PRES   REMARKS
CHATTANOOGA    SUNNY     64  57  78 CALM      30.25R
$$

SKY/WX REPORTED AS FAIR MEANS FEW OR NO CLOUDS BELOW
12 THOUSAND FEET.



USA.gov is the U.S. government's official web portal to all federal, state and local government web resources and services.